Hourly Data Report for August 27, 2015

All times are specified in Local Standard Time (LST). Add 1 hour to adjust for Daylight Saving Time where and when it is observed.

TORONTO INTL A
ONTARIO

43°40'36.000" N
79°37'50.000" W
173.40 m
6158731
71624
YYZ

Download Data

Hourly Data (August 2015)
Hourly Data Report for August 27, 2015
Temp Definition
°C
Dew Point Temp Definition
°C
Rel Hum Definition
%
Wind Dir Definition
10's deg

Wind Spd Definition
km/h
Visibility Definition
km
Stn Press Definition
kPa
Hmdx Definition


Wind Chill Definition


Weather Definition


TIME
00:00 Legend Double Dagger 15.2 11.2 77 27 14 24.1 99.77     LegendNANA
01:00 Legend Double Dagger 14.1 10.9 81 26 14 24.1 99.78     Mainly Clear
02:00 Legend Double Dagger 13.4 11.0 85 26 15 24.1 99.75     LegendNANA
03:00 Legend Double Dagger 12.7 10.8 88 26 9 24.1 99.77     LegendNANA
04:00 Legend Double Dagger 14.1 11.6 85 27 10 24.1 99.80     Mostly Cloudy
05:00 Legend Double Dagger 14.6 11.6 82 28 12 24.1 99.82     LegendNANA
06:00 Legend Double Dagger 14.8 11.8 82 26 9 24.1 99.88     LegendNANA
07:00 Legend Double Dagger 15.0 12.0 82 27 12 24.1 99.94     Mostly Cloudy
08:00 Legend Double Dagger 15.6 11.8 78 34 13 24.1 99.94     LegendNANA
09:00 Legend Double Dagger 16.7 11.7 72 32 13 24.1 99.98     LegendNANA
10:00 Legend Double Dagger 17.2 11.1 67 35 14 24.1 100.01     Mostly Cloudy
11:00 Legend Double Dagger 17.6 11.5 67 1 20 24.1 100.02     LegendNANA
12:00 Legend Double Dagger 18.3 11.7 65 28 8 24.1 100.01     LegendNANA
13:00 Legend Double Dagger 18.2 11.8 66 34 16 24.1 100.03     Cloudy
14:00 Legend Double Dagger 18.7 11.6 63 33 5 24.1 99.99     LegendNANA
15:00 Legend Double Dagger 18.9 11.3 61 29 7 24.1 99.96     LegendNANA
16:00 Legend Double Dagger 18.7 11.4 62 36 13 24.1 99.94     Cloudy
17:00 Legend Double Dagger 19.0 11.2 60 33 9 24.1 99.97     LegendNANA
18:00 Legend Double Dagger 18.6 11.3 62 34 15 24.1 99.98     LegendNANA
19:00 Legend Double Dagger 18.3 11.2 63 32 12 24.1 100.01     Mostly Cloudy
20:00 Legend Double Dagger 18.1 11.7 66 31 8 24.1 100.05     LegendNANA
21:00 Legend Double Dagger 16.7 11.5 71 5 4 24.1 100.06     LegendNANA
22:00 Legend Double Dagger 16.0 11.4 74 3 7 24.1 100.08     Mainly Clear
23:00 Legend Double Dagger 14.2 11.0 81 1 6 24.1 100.09     LegendNANA

Notes on Data Quality.

Legend

  • E = Estimated
  • M = Missing
  • NA = Not Available
  • ‡ = Partner data that is not subject to review by the National Climate Archives
Date modified: